This is the latest recevied weather packets stored in our database for station/object OE3XOC-11. If no packets are shown the sender has not sent any weather packets the latest 10 day(s).
| Time | Temp. | Humidity | Pressure | Rain* | Wind** | Luminosity | Snow |
|---|---|---|---|---|---|---|---|
| 1777045361 | 20.56° C | 25% | 959.8 hPa | - | - | - | - |
| 1777045062 | 21.11° C | 25% | 959.7 hPa | - | - | - | - |
| 1777044762 | 20.56° C | 24% | 959.7 hPa | - | - | - | - |
| 1777044461 | 21.11° C | 25% | 959.8 hPa | - | - | - | - |
| 1777044161 | 21.11° C | 25% | 959.8 hPa | - | - | - | - |
| 1777043862 | 21.11° C | 25% | 959.8 hPa | - | - | - | - |
| 1777043562 | 20.56° C | 25% | 959.9 hPa | - | - | - | - |
| 1777043262 | 21.11° C | 25% | 959.9 hPa | - | - | - | - |
| 1777042961 | 21.11° C | 25% | 959.9 hPa | - | - | - | - |
| 1777042661 | 20° C | 25% | 960 hPa | - | - | - | - |
| 1777042362 | 20.56° C | 24% | 959.9 hPa | - | - | - | - |
| 1777042062 | 20.56° C | 24% | 960 hPa | - | - | - | - |
| 1777041762 | 20.56° C | 24% | 960 hPa | - | - | - | - |
| 1777041461 | 20.56° C | 24% | 960.1 hPa | - | - | - | - |
| 1777041162 | 20° C | 24% | 960 hPa | - | - | - | - |
| 1777040862 | 20° C | 23% | 960 hPa | - | - | - | - |
| 1777040562 | 19.44° C | 24% | 960.1 hPa | - | - | - | - |
| 1777040262 | 20° C | 24% | 960.2 hPa | - | - | - | - |
| 1777039961 | 19.44° C | 24% | 959.8 hPa | - | - | - | - |
| 1777039661 | 19.44° C | 24% | 960.3 hPa | - | - | - | - |
| 1777039362 | 20° C | 24% | 960.2 hPa | - | - | - | - |
| 1777039061 | 19.44° C | 23% | 960 hPa | - | - | - | - |
| 1777038762 | 19.44° C | 23% | 960.1 hPa | - | - | - | - |
| 1777038462 | 20° C | 23% | 960.2 hPa | - | - | - | - |
| 1777038161 | 19.44° C | 24% | 960.1 hPa | - | - | - | - |
* Rain since midnight (hover to see other rain measurements)
** Current wind speed in m/s (hover to see current wind gust speed)